ニート彗星

P/2001 Q6 ( NEAT ) 2024

English version
Home page
Updated on October 11, 2019

---------------------------------------------------------------------

・ プロフィール

・ 軌道要素

Perturbed ephemeris below is based on elements from MPC 45182. 

 Epoch = 2460360.50000 TT   T = 2460369.40233 TT
 Peri. =   42.91746         a =     7.9732507 AU
 Node  =   22.18569 J2000.0 e =     0.8236892
 Incl. =   56.90902         q =     1.4057698 AU

・ 星図

・ 光度変化

        m1 = 14.0 + 5 logΔ +  10.0 log r  [   ,-50]  (              〜2024年 1月 9日)
        m1 = -5   + 5 logΔ + 110   log r  [-50,  0]  (2024年 1月 9日〜2024年 2月28日)
        m1 =  6.8 + 5 logΔ +  30   log r  [  0,   ]  (2024年 2月28日〜              )

---------------------------------------------------------------------

軌道要素はMinor Planet & Comet Ephemeris Serviceで計算したものです。
星図はステラナビゲータ Ver.10 (アストロアーツ) で作成したものです。
光度グラフはComet for Windowsで作成したものです。

---------------------------------------------------------------------

Copyright(C) Seiichi Yoshida (comet@aerith.net). All rights reserved.